Location: Bushey
(51.6333°N, 0.3667°W)
Time: 08:20:29
(UTC+00:00)

Cosmos 2333 - Visible Passes

Search period start: 21 June 2021 00:00
Search period end: 01 July 2021 00:00
Orbit: 831 x 864 km, 70.9° (Epoch: 20 June)

Date Brightness Start Highest point End Pass type
(mag) Time Alt. Az. Time Alt. Az. Time Alt. Az.
21 Jun 7.2 01:24:08 10° NNW 01:25:59 11° N 01:27:51 10° N visible
21 Jun 4.3 21:35:33 10° SSW 21:41:18 88° WNW 21:47:04 10° NNE visible
21 Jun 6.5 23:21:40 10° W 23:26:19 24° NW 23:30:56 10° NNE visible
22 Jun 7.3 01:10:52 10° NNW 01:12:44 11° N 01:14:37 10° N visible
22 Jun 7.3 02:57:15 10° N 02:59:45 13° NNE 03:02:13 10° NE visible
22 Jun 4.3 21:22:20 10° SSW 21:28:06 89° WNW 21:33:51 10° NNE visible
22 Jun 6.5 23:08:26 10° W 23:13:05 25° NW 23:17:43 10° NNE visible
23 Jun 7.3 00:57:37 10° NNW 00:59:31 12° NNW 01:01:23 10° N visible
23 Jun 7.3 02:44:02 10° N 02:46:29 13° NNE 02:48:56 10° NE visible
23 Jun 4.3 21:09:07 10° SSW 21:14:52 90° SSW 21:20:38 10° NNE visible
23 Jun 6.6 22:55:11 10° W 22:59:51 25° NW 23:04:31 10° NNE visible
24 Jun 7.4 00:44:21 10° NNW 00:46:16 12° NNW 00:48:10 10° N visible
24 Jun 7.4 02:30:50 10° N 02:33:15 13° NNE 02:35:40 10° NE visible
24 Jun 6.6 22:41:56 10° W 22:46:38 25° NW 22:51:18 10° NNE visible
25 Jun 7.4 00:31:05 10° NNW 00:33:01 12° NNW 00:34:57 10° N visible
25 Jun 7.4 02:17:38 10° N 02:20:01 13° NNE 02:22:24 10° NE visible
25 Jun 6.6 22:28:42 10° W 22:33:24 25° NW 22:38:05 10° NNE visible
26 Jun 7.5 00:17:50 10° NNW 00:19:47 12° NNW 00:21:44 10° N visible
26 Jun 7.5 02:04:26 10° N 02:06:47 12° NNE 02:09:07 10° NE visible
26 Jun 6.7 22:15:27 10° W 22:20:10 26° NW 22:24:53 10° NNE visible
27 Jun 7.5 00:04:34 10° NNW 00:06:33 12° NNW 00:08:31 10° N visible
27 Jun 7.6 01:51:13 10° N 01:53:32 12° NNE 01:55:52 10° NE visible
27 Jun 6.7 22:02:13 10° W 22:06:56 26° NW 22:11:40 10° NNE visible
27 Jun 7.6 23:51:18 10° NNW 23:53:18 12° NNW 23:55:18 10° N visible
28 Jun 7.6 01:38:01 10° N 01:40:18 12° NNE 01:42:35 10° NE visible
28 Jun 6.7 21:48:58 10° W 21:53:43 26° NW 21:58:27 10° NNE visible
28 Jun 7.6 23:38:03 10° NW 23:40:04 12° NNW 23:42:05 10° N visible
29 Jun 7.7 01:24:48 10° N 01:27:04 12° NNE 01:29:19 10° NE visible
29 Jun 6.7 21:35:43 10° W 21:40:29 26° NW 21:45:14 10° NNE visible
29 Jun 7.7 23:24:47 10° NW 23:26:50 12° NNW 23:28:52 10° N visible
30 Jun 7.7 01:11:36 10° N 01:13:49 12° NNE 01:16:03 10° NE visible
30 Jun 6.7 02:55:14 10° NNW 03:00:05 28° NE 03:04:53 10° E visible
30 Jun 6.8 21:22:29 10° W 21:27:15 27° NW 21:32:02 10° NNE visible
30 Jun 7.8 23:11:32 10° NW 23:13:35 12° NNW 23:15:40 10° N visible
